Regional Weather Roundup
Issued by NWS

Home | Current Version | Previous Version | Graphics & Text | Print | Product List | Glossary On
Versions: 1 2 3 4 5 6 7 8 9 10 11 12 13 14 15 16 17 18 19 20 21 22 23 24 25 26 27 28 29 30 31 32 33 34 35 36 37 38 39 40 41 42 43 44 45 46 47 48 49 50
000
ASUS43 KMKX 152311
RWRWI

WISCONSIN REGIONAL WEATHER ROUNDUP
NATIONAL WEATHER SERVICE MILWAUKEE/SULLIVAN WI
600 PM CDT TUE APR 15 2014

NOTE: "FAIR" INDICATES FEW OR NO CLOUDS BELOW 12,000 FEET WITH NO
SIGNIFICANT WEATHER AND/OR OBSTRUCTIONS TO VISIBILITY.

WIZ001-002-006>008-014>016-023>028-160000-
NORTHWEST WISCONSIN

CITY           SKY/WX    TMP DP  RH WIND       PRES   REMARKS
SUPERIOR ARPT  SUNNY     33   1  26 S6        30.06S WCI  27
ASHLAND        SUNNY     31   3  30 NE6       30.07R WCI  25
HAYWARD        SUNNY     32  -2  23 CALM      30.04S
SIREN          MOSUNNY   33  -1  23 CALM      30.05S
RICE LAKE      NOT AVBL
LADYSMITH      SUNNY     33   4  28 W8        30.05S WCI  26
EAU CLAIRE     SUNNY     36   4  26 VRB5      30.06S WCI  32
MENOMONIE      PTCLDY    36   3  24 SW3       30.06S
NEW RICHMOND   MOSUNNY   35   0  22 CALM      30.05S
OSCEOLA        SUNNY     36   4  26 SW5       30.08S WCI  32
$$

WIZ003>005-009-010-017-018-160000-
NORTH CENTRAL WISCONSIN

CITY           SKY/WX    TMP DP  RH WIND       PRES   REMARKS
WOODRUFF       SUNNY     34   5  29 N10       30.01R WCI  26
RHINELANDER    MOSUNNY   27   5  39 W10       30.02R WCI  17
EAGLE RIVER    MOSUNNY   28   3  34 NW7       30.01S WCI  20
LAND O LAKES   MOSUNNY   28   2  33 N9        30.02R WCI  19
PHILLIPS       SUNNY     31   2  29 NW7       30.02R WCI  24
TOMAHAWK       MOSUNNY   29   3  33 CALM      30.03R
MEDFORD        SUNNY     30  10  43 W9        30.03S WCI  22
MERRILL        SUNNY     31   6  34 CALM      30.04S
$$

WIZ029-030-035-036-043>047-160000-
CENTRAL WISCONSIN

CITY           SKY/WX    TMP DP  RH WIND       PRES   REMARKS
WAUSAU         MOSUNNY   29   9  43 W10       30.05R WCI  20
MOSINEE        MOSUNNY   28  10  47 NW7       30.07S WCI  21
MARSHFIELD     MOSUNNY   31  11  43 W8        30.05S WCI  23
STEVENS POINT  PTSUNNY   28   9  44 W3        30.09R
WAUPACA        CLOUDY    34  14  44 W7        30.11R WCI  28
WAUTOMA        PTSUNNY   32  17  54 W6        30.12R WCI  26
WISC RAPIDS    MOSUNNY   31  10  41 W7        30.09S WCI  24
CAMP DOUGLAS   PTSUNNY   34  12  40 W5        30.09S WCI  30
$$

WIZ011>013-019>022-031-037>040-048>050-160000-
NORTHEAST WISCONSIN

CITY           SKY/WX    TMP DP  RH WIND       PRES   REMARKS
ANTIGO         PTSUNNY   28   9  46 W5        30.04R WCI  22
STURGEON BAY   MOSUNNY   30  16  55 W7        30.09R WCI  23
GREEN BAY      MOSUNNY   32  17  54 W14G22    30.11R WCI  22
MANITOWOC      MIX PCPN  32  18  56 W7        30.12R WCI  26
APPLETON       PTSUNNY   30  12  47 W13       30.10R WCI  20
CLINTONVILLE   PTSUNNY   32  12  43 W10       30.10R WCI  24
OSHKOSH        CLOUDY    32  15  49 W9        30.11R WCI  24
$$

WIZ032>034-041-042-053>061-160000-
SOUTHWEST WISCONSIN

CITY           SKY/WX    TMP DP  RH WIND       PRES   REMARKS
LA CROSSE      SUNNY     38  11  32 NW8       30.09S WCI  32
SPARTA         SUNNY     35   7  30 W6        30.10S WCI  30
VIROQUA        FAIR      34  14  44 W6        30.07S WCI  29
BOSCOBEL       LGT RAIN  39  12  33 SW13      30.11S WCI  31
PRAIRIE DU CHI SUNNY     38  12  34 W5        30.11S WCI  34
PLATTEVILLE    FAIR      37  17  44 SW12      30.11S WCI  29
$$

WIZ056-057-062-063-064-067-068-160000-
SOUTH CENTRAL WISCONSIN

CITY           SKY/WX    TMP DP  RH WIND       PRES   REMARKS
BARABOO/DELLS  MOSUNNY   34  15  45 NW7       30.10R WCI  27
LONE ROCK      SUNNY     37  14  38 W7        30.11S WCI  32
WATERTOWN      MOSUNNY   34  15  45 SW8       30.11S WCI  27
MADISON        PTSUNNY   36  13  38 W7        30.11F WCI  30
MIDDLETON      FAIR      37  13  37 W9        30.11R WCI  31
MONROE         SUNNY     36  13  39 CALM      30.10S
JANESVILLE     MOSUNNY   37  10  32 NW6       30.11S WCI  33
$$

WIZ051-052-058>065-066-070>072-160000-
SOUTHEAST WISCONSIN

CITY           SKY/WX    TMP DP  RH WIND       PRES   REMARKS
MILWAUKEE      PTSUNNY   31  18  58 SE14      30.14R WCI  21
WAUKESHA       PTSUNNY   32  14  47 W10       30.12S WCI  24
MILWAUKEE/TIMM PTSUNNY   34   9  35 W12       30.13R WCI  25
RACINE         CLOUDY    31  19  61 SE12      30.16R WCI  22
BURLINGTON     PTSUNNY   34  13  41 W8        30.12S WCI  27
KENOSHA        PTSUNNY   31  20  63 SE15      30.13S WCI  20
FOND DU LAC    PTSUNNY   31  14  49 W8G17     30.11S WCI  23
SHEBOYGAN      PTSUNNY   33  19  56 W10       30.12R WCI  25
WEST BEND      PTSUNNY   32  12  43 NW10      30.11S WCI  24
JUNEAU         MOSUNNY   32   7  35 W3        30.12S
$$

LSZ147-162-160000-
LAKE SUPERIOR

STATION/POSITION TIME  TEMP    WIND        PRES    WAVE
                       AIR SEA DIR/SP/G            HT/PER
                 (UTC) (F)     (DEG/KT/KT) (MB)    (FT/S)
DEVILS ISLAND    2300   28     220/ 10/ 12 1019.2S
PORT WING        2200   29     270/  9/ 11 1018.6
SAXON HARBOR     2200           60/  5/  6 1018.6F
$$

LMZ867-665-643>646-160000-
LAKE MICHIGAN

STATION/POSITION TIME  TEMP    WIND        PRES    WAVE
                       AIR SEA DIR/SP/G            HT/PER
                 (UTC) (F)     (DEG/KT/KT) (MB)    (FT/S)
NORTHPORT PIER   2200   30     220/  7/ 10 1018.6R
SISTER BAY       2223          260/ 13/ 14   N/A
KEWAUNEE LAKESHO 2200   29     280/  6/ 15 1019.8R
SHEBOYGAN LAKESH 2300   33     280/ 10/ 12 1021.3R
PORT WASHINGTON  2200   34     250/  8/ 12 1020.7R
MILWAUKEE LAKESH 2200   29     130/ 14/ 15   N/A
KENOSHA   LAKESH 2300   30     150/ 15/ 17   N/A
$$

TC  - TEMPERATURE IN CELSIUS
VSB - VISIBILITY IN STATUTE MILES
WCI - WIND CHILL INDEX
HX  - HEAT INDEX




USA.gov is the U.S. government's official web portal to all federal, state and local government web resources and services.